Regional Weather Roundup
Issued by NWS

Home | Current Version | Previous Version | Text Only | Print | Product List | Glossary On
Versions: 1 2 3 4 5 6 7 8 9 10 11 12 13 14 15 16 17 18 19 20 21 22 23 24 25 26 27 28 29 30 31 32 33 34 35 36 37 38 39 40 41 42 43 44 45 46 47 48 49 50
000
ASUS43 KBIS 192320
RWRND

NORTH DAKOTA REGIONAL WEATHER ROUNDUP
NATIONAL WEATHER SERVICE BISMARCK ND
600 PM CDT SUN APR 19 2015

NOTE: "FAIR" INDICATES FEW OR NO CLOUDS BELOW 12,000 FEET WITH NO
SIGNIFICANT WEATHER AND/OR OBSTRUCTIONS TO VISIBILITY.


NDZ001>003-009>011-017-200000-
NORTHWEST NORTH DAKOTA

CITY           SKY/WX    TMP DP  RH WIND       PRES   REMARKS
WILLISTON      PTSUNNY   51  21  30 N28G36    29.99F
MINOT          CLOUDY    44  30  57 NW24G35   29.89R
MINOT AFB      CLOUDY    45  32  61 NW23G32   29.88R
$$

NDZ018>021-031>035-040>046-200000-
SOUTHWEST NORTH DAKOTA

CITY           SKY/WX    TMP DP  RH WIND       PRES   REMARKS
BISMARCK       CLOUDY    47  29  49 NW24G35   29.90R
DICKINSON      SUNNY     46  22  38 NW26G32   29.94S
GARRISON         N/A     45  29  53 NW25G35   29.90R
HETTINGER ARPT PTSUNNY   46  25  43 NW28G38   29.97S
$$

NDZ004>008-012>016-024-026-027-054-200000-
NORTHEAST NORTH DAKOTA

CITY           SKY/WX    TMP DP  RH WIND       PRES   REMARKS
GRAND FORKS    PTSUNNY   46  38  73 N20       29.72F
GRND FRKS AFB  PTSUNNY   46  38  73 N20G25    29.72S
DEVILS LAKE    PTSUNNY   43  34  70 N24G31    29.78R
$$

NDZ022-023-025-028>030-036>039-047>053-200000-
SOUTHEAST NORTH DAKOTA

CITY           SKY/WX    TMP DP  RH WIND       PRES   REMARKS
FARGO          CLOUDY    48  40  73 N18       29.72F
JAMESTOWN      CLOUDY    48  34  58 NW26G36   29.77S
$$




USA.gov is the U.S. government's official web portal to all federal, state and local government web resources and services.